KK4WAQ Weather Reports


time (UTC)temp
C
wind
direction
speed
KPH
gust
KPH
rain 1hr
cm
rain 24hr
cm
rain mn
cm
humidity
%
barometer
mb
20260507081532 10 355 0.0 0.0 0.00 2.64 0.00 93 1014.7
20260507080019 10 5 0.0 0.0 0.00 2.64 0.00 93 1014.4
20260507074518 10 348 0.0 0.0 0.00 2.64 0.00 93 1014.6
20260507073018 10 24 0.0 1.6 0.00 2.64 0.00 93 1014.4
20260507071515 10 352 0.0 1.6 0.00 2.64 0.00 93 1014.6
20260507070015 10 342 0.0 1.6 0.00 2.64 0.00 94 1014.6
20260507064514 10 313 0.0 0.0 0.00 2.64 0.00 94 1014.9
20260507063013 10 355 0.0 0.0 0.00 2.64 0.00 94 1014.9
20260507061513 10 354 0.0 0.0 0.00 2.64 0.00 94 1015.2
20260507060012 10 353 0.0 0.0 0.00 2.64 0.00 94 1014.9
20260507054511 11 337 0.0 0.0 0.00 2.64 0.00 94 1014.7
20260507053010 11 4 0.0 0.0 0.00 2.64 0.00 95 1015.3
20260507051507 11 353 0.0 0.0 0.00 2.64 0.00 95 1014.9
20260507050008 11 358 0.0 0.0 0.00 2.64 2.64 95 1015.1
20260507044505 11 359 0.0 0.0 0.00 2.64 2.64 95 1015.0
20260507043008 11 358 0.0 0.0 0.00 2.64 2.64 95 1015.8
20260507041502 11 338 0.0 0.0 0.00 2.64 2.64 95 1016.0
20260507040100 11 326 0.0 0.0 0.00 2.64 2.64 95 1015.6
20260507034600 11 350 0.0 0.0 0.00 2.64 2.64 95 1015.2
20260507033059 11 11 0.0 1.6 0.00 2.64 2.64 95 1015.5
20260507031557 11 5 0.0 0.0 0.00 2.64 2.64 95 1015.5
20260507030057 11 16 0.0 1.6 0.00 2.64 2.64 95 1015.1
20260507024556 11 38 0.0 1.6 0.00 2.64 2.64 95 1015.3
20260507023108 11 355 0.0 11.3 0.00 2.64 2.64 95 1014.8
20260507021552 11 8 0.0 4.8 0.00 2.64 2.64 95 1014.0
20260507020058 12 13 0.0 9.7 0.00 2.64 2.64 96 1014.4
20260507014553 12 357 0.0 0.0 0.00 2.64 2.64 96 1014.3
20260507013050 12 353 0.0 0.0 0.00 2.64 2.64 96 1015.4
20260507011551 12 353 0.0 0.0 0.00 2.64 2.64 96 1014.9
20260507010049 12 90 0.0 0.0 0.00 2.64 2.64 96 1015.4
20260507004548 12 90 0.0 0.0 0.00 2.64 2.64 96 1014.3
20260507003054 12 90 0.0 0.0 0.00 2.64 2.64 96 1013.8
20260507001609 12 67 0.0 0.0 0.00 2.64 2.64 96 1013.5
20260507000046 12 344 0.0 0.0 0.00 2.64 2.64 96 1013.3
20260506234552 12 1 0.0 0.0 0.00 2.64 2.64 96 1013.3
20260506233046 12 347 0.0 0.0 0.00 2.64 2.64 96 1013.5
20260506231545 12 22 0.0 3.2 0.00 2.64 2.64 96 1013.5
20260506230054 12 1 0.0 0.0 0.00 2.64 2.64 96 1014.1
20260506224544 12 352 0.0 3.2 0.00 2.64 2.64 96 1014.2
20260506223044 12 353 0.0 0.0 0.00 2.64 2.64 96 1014.4
20260506221559 12 353 0.0 0.0 0.00 2.64 2.64 96 1014.4
20260506220043 12 333 0.0 0.0 0.00 2.64 2.64 96 1014.3
20260506214542 11 283 0.0 0.0 0.00 2.64 2.64 96 1014.7
20260506213040 11 336 0.0 3.2 0.00 2.64 2.64 96 1014.5
20260506211539 12 347 0.0 3.2 0.00 2.64 2.64 96 1013.5
20260506210051 12 11 0.0 3.2 0.00 2.64 2.64 96 1013.9
20260506204542 12 329 0.0 9.7 0.00 2.64 2.64 96 1013.3
20260506203038 12 321 0.0 4.8 0.00 2.64 2.64 96 1013.7
20260506201537 12 351 0.0 4.8 0.00 2.64 2.64 96 1013.4
20260506200036 12 336 0.0 4.8 0.00 2.64 2.64 96 1013.5
20260506194536 12 350 0.0 1.6 0.00 2.64 2.64 96 1013.7
20260506193041 12 20 0.0 0.0 0.05 2.64 2.64 97 1013.3
20260506191536 12 359 0.0 1.6 0.05 2.64 2.64 96 1013.2
20260506190035 12 2 0.0 0.0 0.05 2.64 2.64 97 1013.0
20260506184538 12 6 0.0 1.6 0.05 2.64 2.64 97 1014.0
20260506183032 12 359 0.0 0.0 0.00 2.59 2.59 97 1014.4
20260506181538 12 353 0.0 0.0 0.00 2.59 2.59 97 1014.0
20260506180030 12 346 0.0 0.0 0.00 2.59 2.59 97 1013.7
20260506174534 12 17 0.0 0.0 0.00 2.59 2.59 97 1013.4
20260506173029 12 21 0.0 0.0 0.03 2.59 2.59 97 1013.3
20260506171532 12 20 0.0 1.6 0.03 2.59 2.59 97 1013.0
20260506170030 12 354 0.0 1.6 0.03 2.59 2.59 97 1013.5
20260506164544 12 32 0.0 1.6 0.03 2.59 2.59 97 1012.9
20260506163026 12 7 0.0 0.0 0.00 2.57 2.57 96 1013.4
20260506161525 12 10 0.0 1.6 0.00 2.57 2.57 97 1013.2
20260506160025 12 19 0.0 1.6 0.00 2.57 2.57 97 1013.1
20260506154523 12 347 0.0 4.8 0.00 2.57 2.57 96 1013.2
20260506153021 12 359 0.0 4.8 0.00 2.57 2.57 96 1013.5
20260506151518 12 337 0.0 3.2 0.00 2.57 2.57 96 1012.9
20260506150018 12 349 0.0 1.6 0.00 2.57 2.57 97 1012.9
20260506144523 12 348 0.0 6.4 0.00 2.57 2.57 96 1012.7
20260506143014 12 358 0.0 6.4 0.00 2.57 2.57 96 1012.3
20260506141525 12 320 0.0 4.8 0.00 2.57 2.57 96 1011.8
20260506140014 12 330 0.0 0.0 0.03 2.57 2.57 96 1011.4
20260506134513 12 346 0.0 1.6 0.05 2.57 2.57 96 1011.3
20260506133014 12 57 0.0 0.0 0.25 2.57 2.57 96 1010.7
20260506131512 12 34 0.0 3.2 0.41 2.57 2.57 96 1010.4
20260506130011 12 8 0.0 3.2 0.43 2.54 2.54 96 1010.4
20260506124509 12 2 0.0 9.7 0.41 2.51 2.51 95 1010.8
20260506123007 12 317 0.0 1.6 0.20 2.31 2.31 95 1012.4
20260506121502 13 307 0.0 1.6 0.08 2.16 2.16 95 1011.8
20260506120110 14 247 0.0 1.6 0.08 2.11 2.11 94 1010.8
20260506114555 16 321 0.0 0.0 0.23 2.11 2.11 93 1010.2
20260506113052 18 95 0.0 1.6 0.43 2.11 2.11 97 1008.6
20260506111551 18 163 0.0 4.8 0.56 2.08 2.08 97 1009.0
20260506110100 18 198 0.0 8.0 1.07 2.03 2.03 97 1008.8
20260506104602 18 134 0.0 0.0 1.22 1.85 1.85 96 1008.8
20260506103049 18 212 0.0 0.0 1.22 1.65 1.65 96 1009.5
20260506101549 18 213 0.0 0.0 1.14 1.52 1.52 96 1010.0
20260506100053 18 114 0.0 1.6 0.66 0.91 0.91 95 1009.4
20260506094543 18 113 0.0 0.0 0.41 0.61 0.61 95 1008.9
20260506093039 18 113 0.0 0.0 0.30 0.41 0.41 94 1008.5
20260506091539 18 113 0.0 0.0 0.36 0.38 0.38 93 1008.3
20260506090040 18 227 0.0 0.0 0.25 0.25 0.25 92 1008.8
20260506084609 19 207 0.0 0.0 0.18 0.18 0.18 90 1008.4
20260506083036 20 171 0.0 3.2 0.10 0.10 0.10 88 1008.0